DW9852 Weather Reports


Display with metric or nautical units.
time (UTC)temp
F
wind
direction
speed
MPH
gust
MPH
rain 1hr
in
rain 24hr
in
rain mn
in
humidity
%
barometer
mb
20260902204550 98 0 0.0 1.0 0.00 0.00 0.00 41 1014.2
20260902203049 99 109 0.0 6.0 0.00 0.00 0.00 43 1014.5
20260902201630 98 0 0.0 1.0 0.00 0.00 0.00 45 1014.6
20260902194553 98 0 0.0 4.0 0.00 0.00 0.00 46 1015.2
20260902193049 98 0 0.0 3.0 0.00 0.00 0.00 47 1015.4
20260902191558 97 292 0.0 6.0 0.00 0.00 0.00 49 1015.6
20260902190054 96 0 0.0 4.0 0.00 0.00 0.00 50 1015.8
20260902184600 96 148 1.0 7.0 0.00 0.00 0.00 51 1016.2
20260902183101 94 0 0.0 3.0 0.00 0.00 0.00 56 1016.5
20260902181554 94 0 0.0 4.0 0.00 0.00 0.00 56 1016.7
20260902180101 93 0 2.0 4.0 0.00 0.00 0.00 58 1017.1
20260902174549 93 0 1.0 5.0 0.00 0.00 0.00 58 1017.2
20260902173053 92 62 1.0 3.0 0.00 0.00 0.00 63 1017.5
20260902171602 91 148 0.0 2.0 0.00 0.00 0.00 63 1017.6
20260902170050 90 0 0.0 4.0 0.00 0.00 0.00 65 1017.9
20260902164600 89 109 1.0 5.0 0.00 0.00 0.00 65 1018.0
20260902163053 89 0 1.0 4.0 0.00 0.00 0.00 71 1018.0
20260902161600 87 0 0.0 3.0 0.00 0.00 0.00 74 1018.1
20260902160049 87 0 0.0 1.0 0.00 0.00 0.00 74 1018.2
20260902154609 85 0 0.0 2.0 0.00 0.00 0.00 77 1018.2
20260902153050 85 221 0.0 1.0 0.00 0.00 0.00 78 1018.2
20260902151600 84 0 0.0 4.0 0.00 0.00 0.00 80 1018.2
20260902150051 83 0 0.0 5.0 0.00 0.00 0.00 83 1018.2
20260902144550 0 0.0 0.0 0.00 0.00 0.00 1018.3
20260902143056 0 0.0 0.0 0.00 0.00 0.00 1018.4
20260902141551 0 0.0 0.0 0.00 0.00 0.00 1018.4
20260902140050 0 0.0 0.0 0.00 0.00 0.00 1018.2
20260902134553 0 0.0 0.0 0.00 0.00 0.00 1018.0
20260902133102 0 0.0 0.0 0.00 0.00 0.00 1018.2
20260902131555 0 0.0 0.0 0.00 0.00 0.00 1018.0
20260902130054 0 0.0 0.0 0.00 0.00 0.00 1017.9
20260902124556 0 0.0 0.0 0.00 0.00 0.00 1017.7
20260902123053 0 0.0 0.0 0.00 0.00 0.00 1017.5
20260902121558 0 0.0 0.0 0.00 0.00 0.00 1017.4
20260902120051 0 0.0 0.0 0.00 0.00 0.00 1017.4
20260902114549 0 0.0 0.0 0.00 0.00 0.00 1017.3
20260902113048 0 0.0 0.0 0.00 0.00 0.00 1017.3
20260902111545 0 0.0 0.0 0.00 0.00 0.00 1017.3
20260902110053 0 0.0 0.0 0.00 0.00 0.00 1017.2
20260902104551 0 0.0 0.0 0.00 0.00 0.00 1017.1
20260902103048 0 0.0 0.0 0.00 0.00 0.00 1017.1
20260902101557 0 0.0 0.0 0.00 0.00 0.00 1017.2
20260902100050 0 0.0 0.0 0.00 0.00 0.00 1017.2
20260902094549 0 0.0 0.0 0.00 0.00 0.00 1017.2
20260902093123 0 0.0 0.0 0.00 0.00 0.00 1017.4
20260902091554 0 0.0 1.0 0.00 0.00 0.00 83 1017.4
20260902090056 78 0 0.0 0.0 0.00 0.00 0.00 83 1017.3
20260902084557 79 0 0.0 0.0 0.00 0.00 0.00 82 1017.4
20260902083055 79 0 0.0 0.0 0.00 0.00 0.00 80 1017.3
20260902081610 80 0 0.0 0.0 0.00 0.00 0.00 80 1017.5
20260902080051 80 0 0.0 0.0 0.00 0.00 0.00 79 1017.4
20260902074553 80 0 0.0 0.0 0.00 0.00 0.00 77 1017.5
20260902073053 81 0 0.0 1.0 0.00 0.00 0.00 76 1017.4
20260902071602 81 0 0.0 1.0 0.00 0.00 0.00 75 1017.5
20260902070053 81 73 0.0 3.0 0.00 0.00 0.00 74 1017.4
20260902064600 82 127 1.0 4.0 0.00 0.00 0.00 72 1017.6
20260902063058 82 0 0.0 5.0 0.00 0.00 0.00 71 1017.4
20260902061559 83 0 0.0 3.0 0.00 0.00 0.00 69 1017.3
20260902060106 83 210 0.0 4.0 0.00 0.00 0.00 68 1017.2
20260902054551 84 138 1.0 6.0 0.00 0.00 0.00 66 1017.2
20260902053058 84 148 0.0 5.0 0.00 0.00 0.00 66 1017.0
20260902051555 84 0 1.0 3.0 0.00 0.00 0.00 66 1017.3
20260902050108 85 143 0.0 4.0 0.00 0.00 0.00 65 1017.1
20260902044606 86 107 2.0 7.0 0.00 0.00 0.00 64 1016.9
20260902043050 86 100 3.0 7.0 0.00 0.00 0.00 64 1016.7
20260902041558 86 109 1.0 6.0 0.00 0.00 0.00 64 1016.9
20260902040055 87 47 3.0 7.0 0.00 0.00 0.00 64 1016.9
20260902034600 87 41 2.0 10.0 0.00 0.00 0.00 62 1016.7
20260902033103 88 37 1.0 10.0 0.00 0.00 0.00 60 1016.5
20260902031549 89 115 4.0 10.0 0.00 0.00 0.00 58 1016.3
20260902030055 89 39 5.0 11.0 0.00 0.00 0.00 57 1016.0
20260902024556 90 133 3.0 7.0 0.00 0.00 0.00 57 1015.7
20260902023053 90 53 2.0 10.0 0.00 0.00 0.00 55 1015.4
20260902021553 90 0 0.0 4.0 0.00 0.00 0.00 55 1015.0
20260902020045 90 0 0.0 0.0 0.00 0.00 0.00 53 1014.7
20260902014553 90 0 0.0 0.0 0.00 0.00 0.00 53 1014.5
20260902013050 92 0 0.0 1.0 0.00 0.00 0.00 50 1014.5
20260902011549 92 0 0.0 1.0 0.00 0.00 0.00 48 1014.2
20260902010057 93 0 0.0 0.0 0.00 0.00 0.00 48 1014.3
20260902004555 94 0 0.0 1.0 0.00 0.00 0.00 46 1014.2
20260902003053 95 98 0.0 1.0 0.00 0.00 0.00 44 1014.3
20260902001550 96 86 0.0 3.0 0.00 0.00 0.00 42 1014.4
20260902000056 97 147 0.0 1.0 0.00 0.00 0.00 41 1014.3
20260901234554 97 0 0.0 2.0 0.00 0.00 0.00 41 1014.3
20260901233053 98 0 0.0 2.0 0.00 0.00 0.00 40 1014.5
20260901231551 98 0 0.0 3.0 0.00 0.00 0.00 39 1014.5
20260901230051 98 55 0.0 3.0 0.00 0.00 0.00 40 1014.6
20260901224548 98 67 0.0 4.0 0.00 0.00 0.00 41 1014.7
20260901223054 98 0 0.0 4.0 0.00 0.00 0.00 42 1014.6
20260901221556 98 0 0.0 1.0 0.00 0.00 0.00 39 1014.6
20260901220050 98 0 0.0 0.0 0.00 0.00 0.00 42 1014.7
20260901214550 97 37 1.0 4.0 0.00 0.00 0.00 42 1014.7
20260901213108 97 0 0.0 4.0 0.00 0.00 0.00 41 1014.9
20260901211554 96 87 3.0 6.0 0.00 0.00 0.00 42 1015.1
20260901210051 97 129 0.0 4.0 0.00 0.00 0.00 41 1015.2